Location: Champs
(48.8539°N, 2.6040°E)
Time: 13:24:04
(UTC+00:00)

Meteor 1-4 Rocket - Pass Details

Date: 26 October 2021
Orbit: 447 x 496 km, 81.2° (Epoch: 06 December)

Event Time Altitude Azimuth Distance (km) Brightness Sun altitude
Rises 05:22:18 0° 340° (NNW) 2,474 5.9 -11.2°
Reaches altitude 10° 05:24:28 10° 332° (NNW) 1,601 4.9 -10.9°
Maximum altitude 05:27:40 35° 265° (W) 763 3.0 -10.4°
Drops below altitude 10° 05:30:53 10° 198° (SSW) 1,609 5.1 -9.8°
Sets 05:33:05 0° 190° (S) 2,487 6.2 -9.5°
